When you browse on this site, cookies collect data to enhance your experience and personalize the content and advertising you see.
Visit our Privacy Policy to learn more. By continuing to use the site, you agree to this use of cookies and data.
  • In Sweden
  • List of Countries
  • For 7 days
  • Water Temperature
  • Weather Map
  • Weather Widgets
  • user-avatar
    Login

    Hourly Weather Létavértes

    Today, 19 February, Wednesday

    Time Temperature Precipitation Wind Pressure Humidity
    00:00 +5°C° 0 mm 2 mps 759 mmHg 82%
    01:00 +5°C° 0 mm 1 mps 759 mmHg 82%
    02:00 +5°C° 0 mm 1 mps 758 mmHg 83%
    03:00 +5°C° 0 mm 1 mps 758 mmHg 84%
    04:00 +5°C° 0 mm 1 mps 758 mmHg 85%
    05:00 +4°C° 0 mm 1 mps 758 mmHg 86%
    06:00 +4°C° 0 mm 1 mps 757 mmHg 87%
    07:00 +4°C° 0 mm 1 mps 757 mmHg 88%
    08:00 +5°C° 0 mm 1 mps 757 mmHg 82%
    09:00 +6°C° 0 mm 2 mps 757 mmHg 76%
    10:00 +7°C° 0 mm 2 mps 757 mmHg 71%
    11:00 +8°C° 0 mm 2 mps 756 mmHg 65%
    12:00 +9°C° 0 mm 3 mps 756 mmHg 59%
    13:00 +10°C° 0 mm 3 mps 755 mmHg 52%
    14:00 +10°C° 0 mm 3 mps 755 mmHg 54%
    15:00 +9°C° 0 mm 3 mps 755 mmHg 56%
    16:00 +9°C° 0 mm 2 mps 754 mmHg 58%
    17:00 +8°C° 0 mm 2 mps 754 mmHg 62%
    18:00 +7°C° 0 mm 2 mps 754 mmHg 66%
    19:00 +6°C° 0 mm 2 mps 754 mmHg 71%
    20:00 +6°C° 0 mm 2 mps 754 mmHg 73%
    21:00 +6°C° 0 mm 2 mps 755 mmHg 75%
    22:00 +6°C° 0 mm 2 mps 755 mmHg 77%
    23:00 +6°C° 0 mm 2 mps 755 mmHg 79%

    Tomorrow, 20 February, Thursday

    Time Temperature Precipitation Wind Pressure Humidity
    00:00 +6°C° 0 mm 2 mps 755 mmHg 80%
    01:00 +5°C° 0 mm 2 mps 755 mmHg 82%
    02:00 +5°C° 0 mm 2 mps 755 mmHg 84%
    03:00 +4°C° 0 mm 2 mps 755 mmHg 86%
    04:00 +4°C° 0 mm 2 mps 755 mmHg 88%
    05:00 +4°C° 0 mm 2 mps 755 mmHg 85%
    06:00 +3°C° 0 mm 3 mps 755 mmHg 82%
    07:00 +3°C° 0 mm 3 mps 756 mmHg 78%
    08:00 +4°C° 0 mm 4 mps 756 mmHg 72%
    09:00 +5°C° 0 mm 4 mps 756 mmHg 66%
    10:00 +6°C° 0 mm 5 mps 756 mmHg 59%
    11:00 +6°C° 0 mm 5 mps 756 mmHg 57%
    12:00 +7°C° 0 mm 4 mps 756 mmHg 55%
    13:00 +7°C° 0 mm 4 mps 756 mmHg 53%
    14:00 +7°C° 0 mm 4 mps 756 mmHg 55%
    15:00 +8°C° 0 mm 3 mps 756 mmHg 56%
    16:00 +7°C° 0 mm 3 mps 756 mmHg 58%
    17:00 +6°C° 0 mm 2 mps 756 mmHg 61%
    18:00 +5°C° 0 mm 2 mps 757 mmHg 65%
    19:00 +4°C° 0 mm 2 mps 757 mmHg 69%
    20:00 +5°C° 0 mm 1 mps 757 mmHg 70%
    21:00 +4°C° 0 mm 1 mps 757 mmHg 70%
    22:00 +4°C° 0 mm 1 mps 757 mmHg 70%
    23:00 +4°C° 0 mm 1 mps 758 mmHg 71%

    Day after tomorrow, 21 February, Friday

    Time Temperature Precipitation Wind Pressure Humidity
    00:00 +2°C° 0 mm 0 mps 758 mmHg 71%
    01:00 +2°C° 0 mm 0 mps 758 mmHg 72%
    02:00 +2°C° 0 mm 0 mps 758 mmHg 73%
    03:00 +3°C° 0 mm 1 mps 758 mmHg 74%
    04:00 +2°C° 0 mm 1 mps 758 mmHg 75%
    05:00 +1°C° 0 mm 2 mps 758 mmHg 77%
    06:00 +1°C° 0 mm 2 mps 758 mmHg 79%
    07:00 0°C° 0 mm 3 mps 758 mmHg 81%
    14:00 +4°C° 0.2 mm 7 mps 757 mmHg 67%
    15:00 +4°C° 0.2 mm 6 mps 757 mmHg 69%
    16:00 +4°C° 0.2 mm 6 mps 757 mmHg 71%
    17:00 +5°C° 0.2 mm 5 mps 758 mmHg 73%
    18:00 +3°C° 0.2 mm 5 mps 758 mmHg 75%
    19:00 +3°C° 0.2 mm 4 mps 759 mmHg 76%
    20:00 +3°C° 0 mm 4 mps 760 mmHg 76%
    21:00 +2°C° 0 mm 3 mps 760 mmHg 76%
    22:00 +2°C° 0 mm 3 mps 760 mmHg 76%
    23:00 +1°C° 0 mm 3 mps 761 mmHg 75%

    22 February, Saturday

    Time Temperature Precipitation Wind Pressure Humidity
    00:00 +1°C° 0 mm 3 mps 761 mmHg 75%
    01:00 +1°C° 0 mm 3 mps 761 mmHg 75%
    02:00 0°C° 0 mm 3 mps 762 mmHg 77%
    03:00 0°C° 0 mm 3 mps 762 mmHg 78%
    04:00 0°C° 0 mm 3 mps 762 mmHg 79%
    05:00 0°C° 0 mm 3 mps 763 mmHg 79%
    06:00 +1°C° 0 mm 2 mps 763 mmHg 80%
    07:00 +1°C° 0 mm 2 mps 763 mmHg 80%
    08:00 +2°C° 0 mm 2 mps 763 mmHg 74%
    09:00 +4°C° 0 mm 2 mps 764 mmHg 68%
    10:00 +6°C° 0 mm 1 mps 764 mmHg 62%
    11:00 +6°C° 0 mm 2 mps 764 mmHg 58%
    12:00 +7°C° 0 mm 2 mps 764 mmHg 54%
    13:00 +8°C° 0 mm 2 mps 763 mmHg 51%
    14:00 +7°C° 0 mm 3 mps 763 mmHg 52%
    15:00 +7°C° 0 mm 3 mps 763 mmHg 54%
    16:00 +7°C° 0 mm 3 mps 763 mmHg 55%
    17:00 +5°C° 0 mm 3 mps 763 mmHg 59%
    18:00 +4°C° 0 mm 3 mps 763 mmHg 63%
    19:00 +3°C° 0 mm 3 mps 763 mmHg 67%
    20:00 +3°C° 0 mm 4 mps 763 mmHg 66%
    21:00 +3°C° 0 mm 4 mps 763 mmHg 66%
    22:00 +2°C° 0 mm 5 mps 763 mmHg 66%
    23:00 +2°C° 0 mm 5 mps 762 mmHg 67%

    23 February, Sunday

    Time Temperature Precipitation Wind Pressure Humidity
    00:00 +2°C° 0 mm 5 mps 762 mmHg 68%
    01:00 +1°C° 0 mm 6 mps 762 mmHg 68%
    02:00 +1°C° 0 mm 6 mps 761 mmHg 68%
    03:00 0°C° 0 mm 7 mps 761 mmHg 68%
    04:00 0°C° 0 mm 7 mps 760 mmHg 68%
    05:00 0°C° 0.2 mm 7 mps 760 mmHg 69%
    06:00 0°C° 0.2 mm 8 mps 760 mmHg 71%
    07:00 0°C° 0.2 mm 8 mps 760 mmHg 72%
    08:00 +1°C° 0.1 mm 8 mps 760 mmHg 74%
    09:00 +1°C° 0.1 mm 8 mps 759 mmHg 76%
    10:00 +1°C° 0.1 mm 8 mps 759 mmHg 77%
    11:00 +2°C° 0 mm 8 mps 759 mmHg 75%
    12:00 +5°C° 0 mm 8 mps 758 mmHg 73%
    13:00 +6°C° 0 mm 8 mps 758 mmHg 70%
    14:00 +8°C° 0 mm 7 mps 757 mmHg 71%
    15:00 +8°C° 0 mm 6 mps 757 mmHg 71%
    16:00 +9°C° 0 mm 6 mps 756 mmHg 72%
    17:00 +8°C° 0 mm 6 mps 756 mmHg 73%
    18:00 +7°C° 0 mm 6 mps 756 mmHg 75%
    19:00 +7°C° 0 mm 6 mps 756 mmHg 76%
    20:00 +7°C° 0 mm 6 mps 755 mmHg 76%
    21:00 +6°C° 0 mm 7 mps 755 mmHg 75%
    22:00 +6°C° 0 mm 7 mps 754 mmHg 75%
    23:00 +6°C° 0.2 mm 8 mps 753 mmHg 73%

    24 February, Monday

    Time Temperature Precipitation Wind Pressure Humidity
    00:00 +6°C° 0.2 mm 9 mps 752 mmHg 72%
    01:00 +6°C° 0.2 mm 9 mps 751 mmHg 70%
    02:00 +6°C° 0.2 mm 10 mps 750 mmHg 70%
    03:00 +6°C° 0.2 mm 10 mps 749 mmHg 70%
    04:00 +6°C° 0.2 mm 11 mps 748 mmHg 69%
    05:00 +7°C° 0.4 mm 10 mps 748 mmHg 70%
    06:00 +7°C° 0.4 mm 10 mps 748 mmHg 71%
    07:00 +8°C° 0.4 mm 9 mps 748 mmHg 72%
    08:00 +8°C° 0.1 mm 9 mps 749 mmHg 65%
    09:00 +8°C° 0.1 mm 9 mps 750 mmHg 58%
    10:00 +7°C° 0.1 mm 8 mps 751 mmHg 51%
    11:00 +7°C° 0.2 mm 9 mps 752 mmHg 47%
    12:00 +8°C° 0.2 mm 10 mps 753 mmHg 44%
    13:00 +8°C° 0.2 mm 10 mps 753 mmHg 40%
    14:00 +7°C° 0 mm 9 mps 754 mmHg 42%
    15:00 +8°C° 0 mm 7 mps 755 mmHg 44%
    16:00 +8°C° 0 mm 5 mps 755 mmHg 45%
    17:00 +6°C° 0 mm 4 mps 756 mmHg 50%
    18:00 +5°C° 0 mm 4 mps 757 mmHg 55%
    19:00 +4°C° 0 mm 3 mps 758 mmHg 60%
    20:00 +3°C° 0 mm 3 mps 759 mmHg 62%
    21:00 +3°C° 0 mm 3 mps 759 mmHg 65%
    22:00 +2°C° 0 mm 3 mps 760 mmHg 67%
    23:00 +3°C° 0 mm 2 mps 760 mmHg 67%
    Show more